DW6794 Weather Reports


Display with metric or nautical units.
time (UTC)temp
F
wind
direction
speed
MPH
gust
MPH
rain 1hr
in
rain 24hr
in
rain mn
in
humidity
%
barometer
mb
20160528215427 84 61 0.0 0.0 0.00 0.00 0.00 50 1014.8
20160528214427 84 61 0.0 3.0 0.00 0.00 0.00 51 1014.7
20160528213427 84 61 3.0 3.0 0.00 0.00 0.00 51 1014.6
20160528212427 84 61 0.0 0.0 0.00 0.00 0.00 51 1014.7
20160528211427 84 61 0.0 0.0 0.00 0.00 0.00 52 1014.8
20160528210428 84 61 0.0 0.0 0.00 0.00 0.00 51 1015.0
20160528204428 83 61 2.0 3.0 0.00 0.01 0.00 51 1015.0
20160528203427 83 61 1.0 3.0 0.00 0.04 0.00 53 1015.0
20160528202428 83 61 2.0 7.0 0.00 0.05 0.00 53 1015.0
20160528201428 84 124 3.0 5.0 0.00 0.07 0.00 52 1015.1
20160528193428 83 254 2.0 6.0 0.00 0.07 0.00 56 1015.3
20160528192427 82 28 0.0 3.0 0.00 0.07 0.00 57 1015.4
20160528181428 82 68 3.0 7.0 0.00 0.07 0.00 61 1016.2
20160528175428 81 315 2.0 7.0 0.00 0.07 0.00 62 1016.7
20160528174428 81 246 1.0 6.0 0.00 0.07 0.00 64 1016.7
20160528173428 80 244 1.0 8.0 0.00 0.07 0.00 65 1016.7
20160528172429 80 248 3.0 6.0 0.00 0.07 0.00 66 1016.8
20160528170428 80 225 1.0 3.0 0.00 0.07 0.00 68 1017.2
20160528165428 80 226 0.0 5.0 0.00 0.07 0.00 67 1017.3
20160528164428 79 246 0.0 3.0 0.00 0.07 0.00 69 1017.2
20160528163428 79 230 1.0 5.0 0.00 0.07 0.00 70 1017.2
20160528162427 80 202 1.0 7.0 0.00 0.07 0.00 70 1017.3
20160528161428 80 250 5.0 7.0 0.00 0.07 0.00 72 1017.5
20160528160428 79 57 0.0 1.0 0.00 0.07 0.00 71 1017.6
20160528155428 79 23 2.0 6.0 0.00 0.07 0.00 72 1017.7
20160528153428 79 252 1.0 7.0 0.00 0.07 0.00 74 1017.5
20160528152428 78 49 2.0 5.0 0.00 0.07 0.00 74 1017.4
20160528150429 78 49 2.0 5.0 0.00 0.07 0.00 77 1017.3
20160528145428 77 53 1.0 3.0 0.00 0.07 0.00 78 1017.4
20160528143429 76 53 0.0 3.0 0.00 0.07 0.00 80 1017.3
20160528142428 76 56 1.0 3.0 0.00 0.07 0.00 81 1017.3
20160528141429 76 56 0.0 0.0 0.00 0.07 0.00 82 1017.1
20160528140338 75 56 0.0 2.0 0.00 0.07 0.00 82 1016.9
20160528135338 75 56 0.0 0.0 0.00 0.07 0.00 83 1017.0
20160528134338 73 40 0.0 0.0 0.00 0.07 0.00 84 1017.0
20160528133338 73 40 0.0 0.0 0.00 0.07 0.00 85 1017.0
20160528132339 72 40 0.0 0.0 0.00 0.07 0.00 86 1016.9
20160528131338 70 40 0.0 0.0 0.00 0.07 0.00 87 1016.8
20160528130338 70 40 0.0 0.0 0.00 0.07 0.00 87 1016.8
20160528125338 69 43 0.0 0.0 0.00 0.07 0.00 88 1016.7
20160528124338 68 355 0.0 0.0 0.00 0.07 0.00 88 1016.6
20160528123338 66 348 0.0 0.0 0.00 0.07 0.00 89 1016.5
20160528122338 65 348 0.0 0.0 0.00 0.07 0.00 89 1016.4
20160528121339 64 348 0.0 0.0 0.00 0.07 0.00 89 1016.4
20160528120339 63 348 0.0 0.0 0.00 0.07 0.00 89 1016.4
20160528115338 62 348 0.0 0.0 0.00 0.07 0.00 89 1016.5
20160528114338 61 348 0.0 0.0 0.00 0.07 0.00 89 1016.4
20160528113339 60 348 0.0 0.0 0.00 0.07 0.00 89 1016.5
20160528112339 59 338 0.0 0.0 0.00 0.07 0.00 89 1016.5
20160528111338 58 67 0.0 0.0 0.00 0.07 0.00 88 1016.3
20160528110339 57 67 0.0 0.0 0.00 0.07 0.00 88 1016.2
20160528105338 57 67 0.0 0.0 0.00 0.07 0.00 88 1016.2
20160528104339 57 67 0.0 0.0 0.00 0.07 0.00 88 1016.1
20160528103338 57 67 0.0 0.0 0.00 0.07 0.00 88 1016.0
20160528102339 57 67 0.0 0.0 0.00 0.07 0.00 88 1016.0
20160528101339 57 67 0.0 0.0 0.00 0.07 0.00 88 1016.0
20160528100339 58 67 0.0 0.0 0.00 0.07 0.00 88 1016.0
20160528095339 58 67 0.0 0.0 0.00 0.07 0.00 88 1016.1
20160528094339 58 67 0.0 0.0 0.00 0.07 0.00 88 1016.0
20160528093339 58 67 0.0 0.0 0.00 0.07 0.00 88 1015.9
20160528092340 58 67 0.0 0.0 0.00 0.07 0.00 88 1015.8
20160528091338 58 67 0.0 0.0 0.00 0.07 0.00 88 1015.5
20160528090339 59 67 0.0 0.0 0.00 0.07 0.00 88 1015.7
20160528085339 59 67 0.0 0.0 0.00 0.07 0.00 88 1015.8
20160528084339 59 67 0.0 0.0 0.00 0.07 0.00 88 1015.6
20160528083339 59 67 0.0 0.0 0.00 0.07 0.00 88 1015.5
20160528082339 59 67 0.0 0.0 0.00 0.07 0.00 88 1015.4
20160528080339 59 67 0.0 0.0 0.00 0.07 0.00 88 1015.4
20160528075340 59 67 0.0 0.0 0.00 0.07 0.00 87 1015.5
20160528074340 59 67 0.0 0.0 0.00 0.07 0.00 87 1015.5
20160528073340 59 67 0.0 0.0 0.00 0.07 0.00 87 1015.5
20160528072340 59 67 0.0 0.0 0.00 0.07 0.00 87 1015.4
20160528071339 60 67 0.0 0.0 0.00 0.07 0.00 87 1015.4
20160528070339 60 67 0.0 0.0 0.00 0.07 0.00 87 1015.4
20160528065339 60 67 0.0 0.0 0.00 0.07 0.00 87 1015.4
20160528064339 60 67 0.0 0.0 0.00 0.07 0.00 87 1015.4
20160528062339 60 67 0.0 0.0 0.00 0.07 0.00 86 1015.4
20160528060340 60 32 0.0 0.0 0.00 0.07 0.00 86 1015.5
20160528055340 61 32 0.0 0.0 0.00 0.07 0.00 86 1015.5
20160528054340 61 32 0.0 0.0 0.00 0.07 0.00 86 1015.8
20160528053340 61 32 0.0 0.0 0.00 0.07 0.00 86 1015.6
20160528052340 61 32 0.0 0.0 0.00 0.07 0.00 86 1015.8
20160528051340 61 32 0.0 0.0 0.00 0.07 0.00 86 1015.8
20160528050340 61 32 0.0 0.0 0.00 0.07 0.00 86 1015.9
20160528045340 61 32 0.0 0.0 0.00 0.07 0.00 85 1015.8
20160528044340 62 32 0.0 0.0 0.00 0.07 0.00 85 1015.9
20160528042340 62 32 0.0 0.0 0.00 0.07 0.00 85 1015.9
20160528041340 62 32 0.0 0.0 0.00 0.07 0.00 85 1015.8
20160528040339 62 32 0.0 0.0 0.00 0.07 0.00 85 1015.7
20160528035340 63 32 0.0 0.0 0.00 0.07 0.07 85 1015.6
20160528034340 63 32 0.0 0.0 0.00 0.07 0.07 85 1015.6
20160528033340 63 32 0.0 0.0 0.00 0.07 0.07 85 1015.4
20160528031339 64 32 0.0 0.0 0.00 0.07 0.07 84 1015.3
20160528030340 64 32 0.0 0.0 0.00 0.07 0.07 84 1015.3
20160528025340 64 32 0.0 0.0 0.00 0.07 0.07 84 1015.2
20160528024340 64 32 0.0 0.0 0.00 0.07 0.07 84 1015.2
20160528023340 65 32 0.0 0.0 0.00 0.07 0.07 84 1015.1
20160528022340 65 32 0.0 0.0 0.00 0.07 0.07 84 1015.2
20160528020341 66 32 0.0 0.0 0.00 0.07 0.07 84 1014.9
20160528015340 66 32 0.0 0.0 0.00 0.07 0.07 84 1014.8
20160528014341 66 32 0.0 0.0 0.00 0.07 0.07 83 1014.8
20160528013341 67 32 0.0 0.0 0.00 0.07 0.07 83 1014.7
20160528012340 67 32 0.0 0.0 0.00 0.07 0.07 83 1014.4
20160528011341 67 32 0.0 0.0 0.00 0.07 0.07 83 1014.3
20160528010341 68 32 0.0 0.0 0.00 0.07 0.07 82 1014.2
20160528003340 70 32 0.0 0.0 0.00 0.07 0.07 81 1014.0
20160528002340 70 32 0.0 0.0 0.00 0.07 0.07 81 1014.0
20160528000341 71 40 0.0 0.0 0.00 0.07 0.07 81 1013.6
20160527234340 71 40 0.0 0.0 0.00 0.07 0.07 81 1013.5
20160527233341 72 40 0.0 0.0 0.00 0.07 0.07 81 1013.4
20160527232341 71 5 0.0 0.0 0.00 0.07 0.07 81 1013.2
20160527231340 71 5 0.0 0.0 0.00 0.07 0.07 81 1013.1
20160527230340 71 34 0.0 0.0 0.00 0.07 0.07 81 1013.0
20160527224341 71 34 0.0 0.0 0.00 0.07 0.07 80 1013.0
20160527223341 71 34 0.0 0.0 0.00 0.07 0.07 80 1013.1
20160527222341 71 38 0.0 0.0 0.00 0.07 0.07 79 1013.5
20160527221341 71 36 0.0 0.0 0.00 0.07 0.07 79 1013.5
20160527220341 71 36 0.0 0.0 0.00 0.07 0.07 79 1013.6